Location: Kunchanapalle
(16.4623°N, 80.6176°E)
Time: 13:48:46
(UTC+00:00)

CZ-2C R/B - Pass Details

Date: 13 August 2020
Orbit: 705 x 907 km, 98.1° (Epoch: 24 September)

Event Time Altitude Azimuth Distance (km) Brightness Sun altitude
Rises 14:22:38 0° 180° (S) 3,216 6.0 -18.9°
Reaches altitude 10° 14:25:03 10° 186° (S) 2,263 5.3 -19.4°
Maximum altitude 14:29:46 45° 259° (W) 978 3.9 -20.4°
Drops below altitude 10° 14:34:21 10° 332° (NNW) 2,187 6.0 -21.5°
Sets 14:36:40 0° 339° (NNW) 3,096 6.8 -22.0°
